Weather History for KFCM - May, 2013

Change the Weather History Date:

Wednesday, May 22, 2013

  Actual Average Record
Temperature  
Mean Temperature 50 °F -  
Max Temperature 54 °F 67 °F 87 °F (2012)
Min Temperature 46 °F 48 °F 35 °F (2006)
Degree Days  
Heating Degree Days 16    
Moisture  
Dew Point 45 °F    
Average Humidity 87    
Maximum Humidity 93    
Minimum Humidity 66    
Precipitation  
Precipitation 0.22 in - - ()
Sea Level Pressure  
Sea Level Pressure 29.78 in    
Wind  
Wind Speed 10 mph (NNE)    
Max Wind Speed 17 mph    
Max Gust Speed 30 mph    
Visibility 7 miles    
Events Rain    
Averages and records for this station are not official NWS values.
T = Trace of Precipitation, MM = Missing Value Source: NWS Daily Summary

Daily Weather History Graph

Daily Weather History Graph

Search for Another Location

Airport or City:

Trip Planner

Search our weather history database for the weather conditions in past years. The results will help you decide how hot, cold, wet, or windy it might be!

Date:

Astronomy

May. 22, 2013 Rise Set
Actual Time 5:38 AM CDT 8:43 PM CDT
Civil Twilight 5:03 AM CDT 9:18 PM CDT
Nautical Twilight 4:18 AM CDT 10:04 PM CDT
Astronomical Twilight 3:23 AM CDT 10:58 PM CDT
Moon 6:01 PM CDT (5/22) 3:49 AM CDT (5/22)
Length of Visible Light 16h 15m
Length of Day
15h 05m
Waxing Gibbous, 91% of the Moon is Illuminated
May 22
Waxing Gibbous
May 24
Full
May 31
Last Quarter
Jun 8
New
Jun 16
First Quarter

Hourly Weather History & Observations

Time (CDT) Temp. Windchill Dew Point Humidity Pressure Visibility Wind Dir Wind Speed Gust Speed Precip Events Conditions
12:53 AM 48.0 °F - 45.0 °F 89% 29.70 in 10.0 mi North 10.4 mph - N/A   Overcast
1:53 AM 46.9 °F - 45.0 °F 93% 29.70 in 10.0 mi NNE 6.9 mph - N/A   Overcast
2:53 AM 46.9 °F - 44.1 °F 90% 29.70 in 10.0 mi NNE 9.2 mph - N/A   Overcast
3:53 AM 46.9 °F - 44.1 °F 90% 29.71 in 10.0 mi NNE 5.8 mph - N/A   Overcast
4:53 AM 46.0 °F 41.4 °F 44.1 °F 93% 29.72 in 10.0 mi NNE 9.2 mph - 0.00 in   Overcast
5:53 AM 46.0 °F 41.4 °F 43.0 °F 89% 29.72 in 5.0 mi NNE 9.2 mph - 0.01 in   Overcast
6:09 AM 46.4 °F 41.9 °F 42.8 °F 87% 29.70 in 2.5 mi NNE 9.2 mph - 0.00 in Rain Light Rain
6:17 AM 46.4 °F 42.9 °F 42.8 °F 87% 29.70 in 3.0 mi NNE 6.9 mph - 0.00 in Rain Light Rain
6:26 AM 46.4 °F 41.5 °F 42.8 °F 87% 29.70 in 2.0 mi NNE 10.4 mph - 0.00 in Rain Light Rain
6:53 AM 46.0 °F 41.9 °F 44.1 °F 93% 29.71 in 2.0 mi NNE 8.1 mph - 0.01 in Rain Light Rain
7:00 AM 46.4 °F 42.9 °F 44.6 °F 93% 29.71 in 1.5 mi NNE 6.9 mph - 0.00 in Rain Light Rain
7:09 AM 46.4 °F 42.9 °F 44.6 °F 93% 29.71 in 1.8 mi NNE 6.9 mph - 0.01 in Rain Light Rain
7:17 AM 46.4 °F 42.9 °F 44.6 °F 93% 29.71 in 3.0 mi NNE 6.9 mph - 0.01 in Rain Light Rain
7:24 AM 46.4 °F 42.9 °F 44.6 °F 93% 29.71 in 2.0 mi NNE 6.9 mph - 0.01 in Rain Light Rain
7:53 AM 46.9 °F - 44.1 °F 90% 29.72 in 5.0 mi NNE 8.1 mph - 0.01 in   Overcast
8:53 AM 46.9 °F - 45.0 °F 93% 29.73 in 10.0 mi North 8.1 mph - 0.01 in   Overcast
9:53 AM 48.9 °F - 46.0 °F 90% 29.73 in 10.0 mi North 10.4 mph - N/A   Overcast
10:53 AM 48.9 °F - 46.0 °F 90% 29.75 in 8.0 mi NNE 11.5 mph 18.4 mph 0.00 in Rain Light Rain
11:53 AM 50.0 °F - 46.9 °F 89% 29.76 in 7.0 mi NNE 10.4 mph - 0.03 in Rain Light Rain
12:53 PM 51.1 °F - 48.0 °F 89% 29.77 in 10.0 mi North 8.1 mph - 0.02 in Rain Light Rain
1:40 PM 51.8 °F - 48.2 °F 88% 29.76 in 10.0 mi NNE 10.4 mph - 0.00 in Rain Light Rain
1:53 PM 52.0 °F - 48.0 °F 86% 29.78 in 8.0 mi NNE 13.8 mph - 0.01 in Rain Light Rain
2:53 PM 52.0 °F - 48.0 °F 86% 29.79 in 8.0 mi North 11.5 mph - 0.00 in Rain Light Rain
3:21 PM 53.6 °F - 48.2 °F 82% 29.79 in 5.0 mi North 10.4 mph 18.4 mph 0.02 in Rain Light Rain
3:53 PM 53.1 °F - 48.9 °F 86% 29.80 in 6.0 mi North 8.1 mph - 0.06 in Rain Light Rain
4:53 PM 52.0 °F - 48.0 °F 86% 29.81 in 8.0 mi NNE 11.5 mph 23.0 mph 0.04 in Rain Light Rain
5:53 PM 52.0 °F - 46.9 °F 83% 29.83 in 10.0 mi NNE 11.5 mph 21.9 mph 0.00 in   Overcast
6:53 PM 52.0 °F - 46.0 °F 80% 29.86 in 10.0 mi NNE 15.0 mph 21.9 mph N/A   Overcast
7:33 PM 51.8 °F - 46.4 °F 82% 29.86 in 10.0 mi NNE 16.1 mph 23.0 mph N/A   Overcast
7:53 PM 51.1 °F - 46.0 °F 83% 29.88 in 10.0 mi NNE 11.5 mph 27.6 mph N/A   Overcast
8:22 PM 51.8 °F - 46.4 °F 82% 29.88 in 10.0 mi NNE 11.5 mph 19.6 mph 0.00 in Rain Light Rain
8:53 PM 51.1 °F - 46.0 °F 83% 29.91 in 7.0 mi NNE 11.5 mph 19.6 mph 0.01 in Rain Light Rain
9:53 PM 50.0 °F - 46.9 °F 89% 29.94 in 10.0 mi NNE 11.5 mph - 0.01 in   Overcast
10:53 PM 53.1 °F - 44.1 °F 71% 29.96 in 10.0 mi NE 17.3 mph 29.9 mph N/A   Overcast
11:53 PM 53.1 °F - 42.1 °F 66% 29.99 in 10.0 mi North 11.5 mph - N/A   Overcast